sat.trackr.live / text

‹ back to catalog

LEMUR-2-STARLIGHT

NORAD 66783 · 2025-276DX

PAYLOAD ACTIVE UNKNOWN

§ Identity

Operator
Country
US
Launch date
2025-11-28
Launch site
AFWTR
Launch vehicle
Mass (kg)
RCS (m²)

Purposes: earth_obs

External: N2YO · Heavens-Above · Gunter

§ Orbital elements

Epoch: 2026-09-19T11:02:48.060672Z

Period
96.01 min
Inclination
97.5138°
Eccentricity
0.0016977
Mean motion
14.99876175 rev/d
Perigee alt
555.5 km
Apogee alt
579.1 km
Semi-major
6,945.4 km
B*
2.9102e-4
RAAN
329.8868°
Arg perigee
166.6305°
Mean anomaly
193.5372°
Rev number
4,432

§ Raw data

LEMUR-2-STARLIGHT1 66783U 25276DX  26262.46027848  .00003560  00000+0  29102-3 0  99992 66783  97.5138 329.8868 0016977 166.6305 193.5372 14.99876175 44326

JSON: /api/v1/satellites/66783 · /tle

For live sub-satellite position, see the globe view (requires WebGL).

§ Visibility from observer

Set your observer location to see the next 7 days of passes ≥ 10°. The values pass through the URL so the page stays shareable.

No JS? Fill the form by hand. The geolocation button needs JavaScript.